Regional Weather Roundup
Issued by NWS

Home | Current Version | Previous Version | Text Only | Print | Product List | Glossary Off
Versions: 1 2 3 4 5 6 7 8 9 10 11 12 13 14 15 16 17 18 19 20 21 22 23 24 25 26 27 28 29 30 31 32 33 34 35 36 37 38 39 40 41 42 43 44 45 46 47 48 49 50

000
ASUS43 KOAX 202110
RWRNE

WEATHER ROUNDUP FOR NEBRASKA
NATIONAL WEATHER SERVICE OMAHA NE
400 PM CDT MON APR 20 2015

NOTES: SATELLITE DATA IS BEING USED TO AUGMENT CLOUD COVER ABOVE
       12000 FEET.
       "FAIR" INDICATES FEW OR NO CLOUDS BELOW 12,000 FEET WITH NO
       SIGNIFICANT WEATHER AND/OR OBSTRUCTIONS TO VISIBILITY.

  * THESE STATIONS DO NOT REPORT WEATHER SUCH AS RAIN...SNOW OR FOG.

NEZ001>004-019>022-054>056-202200-
NEBRASKA PANHANDLE

CITY           SKY/WX    TMP DP  RH WIND       PRES   REMARKS
SCOTTSBLUFF    CLOUDY    55  24  30 NW18G29   29.89F
ALLIANCE       PTSUNNY   53  22  29 NW21G30   29.86F
CHADRON        MOSUNNY   54  22  28 NW17G25   29.87F
KIMBALL        MOSUNNY   52  26  36 NW18G26   29.90F
SIDNEY         PTSUNNY   52  26  36 N21G28    29.91F
$$

NEZ057>060-069>072-079>082-202200-
SOUTHWEST NEBRASKA

CITY           SKY/WX    TMP DP  RH WIND       PRES   REMARKS
NORTH PLATTE   MOSUNNY   55  24  30 NW17G32   29.88F
IMPERIAL       PTSUNNY   56  24  29 NW16G28   29.89F
LEXINGTON      PTSUNNY   57  26  30 NW24G32   29.87F
MCCOOK         PTSUNNY   61  23  23 W25       29.88F
OGALLALA       CLOUDY    54  25  32 NW18      29.89F
$$

NEZ005>010-023>029-035>040-094-202200-
NORTH CENTRAL NEBRASKA

CITY           SKY/WX    TMP DP  RH WIND       PRES   REMARKS
VALENTINE      CLOUDY    52  21  29 NW21G33   29.84S
AINSWORTH      PTSUNNY   52  21  29 NW21G43   29.83S
BROKEN BOW     CLOUDY    54  20  26 NW25G37   29.84F
O`NEILL        CLOUDY    54  19  25 NW22G36   29.80F
ORD            PTSUNNY   55  21  26 NW23G38   29.82F
THEDFORD       PTSUNNY   54  23  30 NW17G26   29.85F
$$

NEZ041-046>049-061>064-073>077-083>087-202200-
SOUTH CENTRAL NEBRASKA

CITY           SKY/WX    TMP DP  RH WIND       PRES   REMARKS
GRAND ISLAND   PTSUNNY   55  20  25 NW26G33   29.84F
AURORA         MOSUNNY   56  21  25 NW24G33   29.83F
HASTINGS       PTSUNNY   56  23  27 NW21G32   29.84F
HEBRON         PTSUNNY   57  17  20 NW21G29   29.85F
HOLDREGE       MOSUNNY   56  22  27 NW21G30   29.87F
KEARNEY *      PTSUNNY   57  21  24 NW22G28   29.86F
YORK           MOSUNNY   55  23  28 NW26      29.82S
$$

NEZ011>018-030>034-042>045-202200-
NORTHEAST NEBRASKA

CITY           SKY/WX    TMP DP  RH WIND       PRES   REMARKS
NORFOLK        MOSUNNY   55  15  20 NW30G40   29.75F
ALBION         PTSUNNY   54  18  24 NW21G37   29.80S
BLAIR          SUNNY     56  13  18 NW30G41   29.74F
COLUMBUS *     MOSUNNY   55  19  24 NW25G38   29.80F
FREMONT        MOSUNNY   60  20  21 W33G40    29.77F
TEKAMAH        MOSUNNY   58  23  26 NW32G41   29.74F
WAYNE          SUNNY     57   7  13 NW35G47   29.75S
$$

NEZ050>053-065>068-078-088>093-202200-
SOUTHEAST NEBRASKA

CITY           SKY/WX    TMP DP  RH WIND       PRES   REMARKS
LINCOLN        CLOUDY    59  18  20 W22G39    29.81F
OMAHA EPPLEY   MOSUNNY   59  16  18 NW30G46   29.74F
BEATRICE       PTSUNNY   56  25  30 NW28G33   29.83F
FALLS CITY     PTSUNNY   59  26  28 W24G39    29.81F
NEBRASKA CITY  PTSUNNY   56  12  17 NW24G33   29.79F
PLATTSMOUTH    MOSUNNY   57  12  17 NW25G35   29.77F
$$

NEZ044-045-051>053-067-202200-
OMAHA AREA

CITY           SKY/WX    TMP DP  RH WIND       PRES   REMARKS
OMAHA EPPLEY   MOSUNNY   59  16  18 NW30G46   29.74F
BLAIR          SUNNY     56  13  18 NW30G41   29.74F
FREMONT        MOSUNNY   60  20  21 W33G40    29.77F
MILLARD        MOSUNNY   58  18  21 NW16G30   29.76F
OFFUTT AFB     SUNNY     59  19  20 W26       29.74F
PLATTSMOUTH    MOSUNNY   57  12  17 NW25G35   29.77F
WAHOO          FAIR      58  13  17 NW20G37   29.78S
$$



USA.gov is the U.S. government's official web portal to all federal, state and local government web resources and services.